[[{"header":{"parameterUnit":"m.s-1","parameterCategory":2,"la1":30.2991,"la2":30.254,"lo1":-89.0895,"lo2":-89.0444,"dx":0.0017,"dy":0.0017,"nx":28,"ny":28,"refTime":"2022-12-13T15:00:00:Z","depth":"0","parameterNumber":2,"parameterNumberName":"U-component_of_CURRENTS"},"data":[0,0,0,0,0,0,0,0,0,0,0,0,0,0,0,0,0,0,0,0,0,0,0,0,0,0,0,0,0,0,0,0,0,0,0,0,0,0,0,0,0,0,0,0,0,0,0,0,0,0,0,0,0,0,0,0,0,0,-0.2604,-0.2604,0,-0.2594,-0.2594,-0.2593,-0.2558,-0.2558,-0.2558,-0.2557,-0.2484,-0.2482,-0.2481,0,0,0,0,0,0,0,0,0,0,0,0,0,-0.2547,-0.2548,-0.2604,-0.2604,-0.2605,-0.2594,-0.2594,-0.2593,-0.2558,-0.2558,-0.2557,-0.2557,-0.2485,-0.2483,-0.2481,0,0,0,0,0,0,0,0,0,0,0,0,0,-0.2554,-0.2548,-0.2604,-0.2589,-0.2588,-0.2594,-0.2594,-0.2593,-0.2558,-0.2558,-0.2557,-0.2557,-0.2485,-0.2483,-0.248,-0.2477,0,0,-0.2473,-0.2472,0,0,0,0,0,0,0,0,-0.2553,-0.2555,-0.2591,-0.259,-0.2589,-0.2581,-0.2547,-0.2553,-0.2559,-0.2565,-0.2557,-0.2557,-0.2514,-0.2509,-0.2503,-0.2473,-0.247,-0.2473,-0.2471,-0.247,-0.247,0,0,0,0,0,0,0,-0.2553,-0.2555,-0.2595,-0.2592,-0.2591,-0.2568,-0.2568,-0.2548,-0.2538,-0.2564,-0.2563,-0.2569,-0.2512,-0.2505,-0.2501,-0.2469,-0.2473,-0.2471,-0.2469,-0.2468,-0.2439,-0.244,0,0,0,0,0,0,-0.2567,-0.2555,-0.2596,-0.2596,-0.2575,-0.257,-0.257,-0.258,-0.2539,-0.2535,-0.257,-0.2568,-0.251,-0.2504,-0.2498,-0.2506,-0.247,-0.2468,-0.2467,-0.2438,-0.2439,-0.244,0,0,0,0,0,0,-0.2566,-0.2571,-0.2596,-0.2578,-0.2581,-0.2572,-0.2584,-0.2581,-0.2575,-0.2545,-0.2538,-0.2568,-0.2509,-0.2501,-0.2487,-0.2502,-0.2467,-0.2465,-0.2438,-0.2439,-0.244,-0.2511,0,0,0,0,0,0,-0.2564,-0.257,-0.2576,-0.258,-0.2582,-0.2608,-0.2585,-0.2581,-0.2582,-0.2579,-0.2542,-0.2534,-0.2508,-0.2491,-0.2485,-0.2498,-0.2463,-0.2437,-0.2438,-0.2439,-0.2508,-0.2514,-0.252,0,0,0,0,0,-0.2562,-0.2576,-0.2576,-0.2581,-0.2593,-0.2609,-0.2608,-0.2596,-0.2583,-0.2587,-0.2562,-0.2535,-0.2494,-0.249,-0.2482,-0.2495,-0.2436,-0.2438,-0.2439,-0.2505,-0.2513,-0.252,0,0,0,0,0,0,-0.255,-0.2575,-0.2575,-0.2595,-0.2605,-0.2605,-0.2607,-0.2601,-0.2585,-0.2577,-0.2543,-0.2535,-0.2525,-0.2502,-0.2497,-0.249,-0.2461,-0.2461,-0.2514,-0.2521,-0.2527,-0.2523,-0.2461,0,0,0,0,0,-0.2554,-0.2571,-0.259,-0.2603,-0.2612,-0.261,-0.2613,-0.2608,-0.26,-0.2592,-0.2568,-0.2543,-0.2526,-0.2517,-0.2494,-0.2492,-0.2472,-0.2496,-0.2502,-0.2507,-0.2499,-0.249,-0.2494,-0.2445,-0.2445,-0.2445,0,0,-0.2552,-0.2568,-0.2576,-0.2602,-0.2606,-0.2628,-0.2609,-0.2619,-0.2631,-0.2586,-0.2584,-0.2559,-0.2529,-0.2526,-0.2521,-0.2509,-0.2514,-0.2509,-0.2514,-0.2503,-0.2492,-0.2497,-0.2501,-0.2446,-0.2446,-0.2446,0,0,-0.2561,-0.2574,-0.2593,-0.2611,-0.2631,-0.2635,-0.2643,-0.2649,-0.2643,-0.2646,-0.2615,-0.26,-0.2579,-0.256,-0.2549,-0.2574,-0.2544,-0.257,-0.2601,-0.2593,-0.2597,-0.26,-0.2599,-0.2602,-0.2578,-0.2578,-0.2578,0,-0.2554,-0.2588,-0.2599,-0.2628,-0.2647,-0.2645,-0.2672,-0.2672,-0.2669,-0.2669,-0.2654,-0.2622,-0.2595,-0.2592,-0.2599,-0.2587,-0.258,-0.2579,-0.2602,-0.2604,-0.2606,-0.2604,-0.2606,-0.2581,-0.2581,-0.2581,-0.258,0,-0.2583,-0.2613,-0.2628,-0.2667,-0.2686,-0.2709,-0.2724,-0.2731,-0.2726,-0.2723,-0.2716,-0.2681,-0.2662,-0.2657,-0.2634,-0.2637,-0.2628,-0.261,-0.2586,-0.2616,-0.2611,-0.2612,-0.2587,-0.2585,-0.2584,-0.2583,0,0,-0.2553,-0.2634,-0.2636,-0.2667,-0.2711,-0.2728,-0.2757,-0.2781,-0.2794,-0.2781,-0.279,-0.2761,-0.2736,-0.272,-0.269,-0.268,-0.2692,-0.2654,-0.2652,-0.2657,-0.2683,-0.2689,-0.269,-0.2683,-0.2683,-0.2683,-0.2682,0,-0.2569,-0.2635,-0.267,-0.2724,-0.276,-0.2784,-0.2813,-0.2831,-0.2836,-0.2841,-0.2809,-0.2799,-0.2764,-0.2753,-0.2739,-0.2698,-0.2693,-0.2694,-0.2648,-0.2647,-0.2652,-0.269,-0.2672,-0.267,-0.2682,-0.2682,-0.2682,0,-0.2574,-0.2626,-0.2685,-0.2765,-0.2781,-0.2807,-0.2851,-0.2877,-0.2891,-0.2895,-0.2884,-0.2859,-0.2837,-0.2799,-0.2757,-0.2762,-0.2726,-0.2696,-0.2695,-0.267,-0.2653,-0.2637,-0.267,-0.2666,-0.2682,-0.2682,-0.2682,0,-0.2538,-0.2629,-0.2676,-0.2704,-0.2791,-0.2812,-0.2845,-0.288,-0.2904,-0.2915,-0.2931,-0.2905,-0.2888,-0.2843,-0.2789,-0.2774,-0.2745,-0.2716,-0.269,-0.269,-0.2648,-0.2645,-0.267,-0.2687,-0.2687,-0.2687,-0.2687,0,-0.2537,-0.2572,-0.2661,-0.2688,-0.2734,-0.2796,-0.2834,-0.2866,-0.291,-0.2938,-0.2942,-0.2951,-0.2898,-0.2878,-0.2816,-0.2767,-0.2771,-0.27,-0.2692,-0.2675,-0.2674,-0.2645,-0.2638,-0.2687,-0.2687,-0.2687,-0.2687,0,-0.2481,-0.2547,-0.2598,-0.2691,-0.2715,-0.2735,-0.2821,-0.2854,-0.2908,-0.2942,-0.2949,-0.2983,-0.296,-0.2918,-0.2852,-0.2809,-0.2724,-0.2734,-0.2726,-0.2717,-0.2678,-0.2675,-0.2621,-0.2552,-0.27,-0.27,-0.27,0,-0.2459,-0.2479,-0.2568,-0.2592,-0.2629,-0.2682,-0.2724,-0.2817,-0.2857,-0.2956,-0.2964,-0.2986,-0.2984,-0.2925,-0.286,-0.2786,-0.2722,-0.2724,-0.2682,-0.2684,-0.2675,-0.2627,-0.2568,-0.2659,-0.2659,-0.2659,-0.2659,0,-0.2393,-0.2414,-0.2456,-0.2513,-0.2557,-0.2616,-0.2683,-0.2728,-0.284,-0.2893,-0.296,-0.2978,-0.2973,-0.292,-0.2855,-0.278,-0.2687,-0.2718,-0.2716,-0.2646,-0.2597,-0.2525,-0.266,-0.2657,-0.2657,-0.2657,-0.2657,-0.2658,-0.2308,-0.2314,-0.236,-0.2404,-0.2464,-0.2516,-0.2519,-0.2625,-0.2687,-0.2743,-0.2865,-0.2885,-0.2942,-0.2853,-0.2808,-0.2736,-0.2666,-0.2656,-0.2654,-0.2606,-0.2537,-0.268,-0.2671,-0.2671,-0.2672,-0.2672,-0.2672,0,-0.2193,-0.2213,-0.2251,-0.2291,-0.2305,-0.238,-0.2457,-0.2438,-0.2471,-0.2605,-0.2654,-0.2787,-0.2786,-0.2813,-0.2802,-0.2715,-0.2608,-0.263,-0.256,-0.2499,-0.2632,-0.2629,-0.2617,-0.2617,-0.2617,-0.2617,-0.2617,-0.2617,-0.2123,-0.2109,-0.2137,-0.2105,-0.2135,-0.2096,-0.2108,-0.2114,-0.2173,-0.2235,-0.2357,-0.2488,-0.2574,-0.2868,-0.2821,-0.271,-0.2592,-0.2537,-0.2479,-0.2607,-0.2609,-0.2611,-0.2608,-0.2592,-0.2592,-0.2295,-0.2293,-0.2292]},{"header":{"parameterUnit":"m.s-1","parameterCategory":2,"la1":30.2991,"la2":30.254,"lo1":-89.0895,"lo2":-89.0444,"dx":0.0017,"dy":0.0017,"nx":28,"ny":28,"refTime":"2022-12-13T15:00:00:Z","depth":"0","parameterNumber":3,"parameterNumberName":"V-component_of_CURRENTS"},"data":[0,0,0,0,0,0,0,0,0,0,0,0,0,0,0,0,0,0,0,0,0,0,0,0,0,0,0,0,0,0,0,0,0,0,0,0,0,0,0,0,0,0,0,0,0,0,0,0,0,0,0,0,0,0,0,0,0,0,-0.0231,-0.023,0,-0.0144,-0.0143,-0.0142,-0.0099,-0.0099,-0.0099,-0.0099,-0.0002,0.0001,0.0003,0,0,0,0,0,0,0,0,0,0,0,0,0,-0.0304,-0.0304,-0.0231,-0.023,-0.0229,-0.0145,-0.0143,-0.0142,-0.0099,-0.0099,-0.0099,-0.0099,-0.0002,0.0001,0.0004,0,0,0,0,0,0,0,0,0,0,0,0,0,-0.0251,-0.0303,-0.0231,-0.0197,-0.0193,-0.0145,-0.0143,-0.0142,-0.0099,-0.0099,-0.0099,-0.0099,-0.0003,0.0,0.0004,0.0027,0,0,0.0016,0.0018,0,0,0,0,0,0,0,0,-0.0254,-0.0248,-0.0203,-0.0199,-0.0195,-0.0132,-0.0133,-0.0085,-0.0099,-0.0135,-0.0099,-0.0099,-0.0044,-0.0037,-0.0021,0.0032,0.0036,0.0016,0.0019,0.002,0.0021,0,0,0,0,0,0,0,-0.0258,-0.0251,-0.0197,-0.0202,-0.0197,-0.0167,-0.016,-0.0124,-0.0091,-0.0132,-0.0128,-0.0119,-0.0042,-0.0025,-0.0019,0.0037,0.0016,0.002,0.0022,0.0023,0.0138,0.0139,0,0,0,0,0,0,-0.0271,-0.0255,-0.02,-0.0194,-0.0225,-0.0166,-0.0158,-0.0153,-0.0091,-0.0082,-0.0119,-0.0117,-0.0032,-0.0023,-0.0015,0.0028,0.002,0.0024,0.0026,0.0137,0.0138,0.0139,0,0,0,0,0,0,-0.0273,-0.0267,-0.0203,-0.0222,-0.0212,-0.0165,-0.0159,-0.0151,-0.0134,-0.0081,-0.0072,-0.011,-0.0031,-0.002,0.0024,0.0031,0.0026,0.0029,0.0137,0.0138,0.0139,0.0105,0,0,0,0,0,0,-0.0276,-0.0269,-0.0271,-0.0224,-0.0212,-0.0179,-0.0159,-0.0149,-0.0127,-0.0124,-0.0071,-0.0062,-0.003,0.0018,0.0028,0.0036,0.0032,0.0136,0.0137,0.0138,0.0105,0.0105,0.0105,0,0,0,0,0,-0.0279,-0.0284,-0.0272,-0.0265,-0.0217,-0.0179,-0.0171,-0.0137,-0.0127,-0.0121,-0.0079,-0.0063,0.0033,0.0022,0.0033,0.0043,0.0135,0.0137,0.0138,0.0105,0.0105,0.0105,0,0,0,0,0,0,-0.0319,-0.0279,-0.0265,-0.0259,-0.0224,-0.0172,-0.0165,-0.014,-0.0102,-0.0101,-0.0052,-0.004,-0.0002,0.0029,0.0014,0.0081,0.0086,0.009,0.0058,0.0058,0.0057,0.0045,0.0035,0,0,0,0,0,-0.0329,-0.0324,-0.0277,-0.0274,-0.0259,-0.0213,-0.0195,-0.0171,-0.013,-0.0113,-0.0072,-0.0027,0.0014,0.0041,0.0077,0.0117,0.0149,0.0132,0.0132,0.0131,0.013,0.0187,0.0191,0.0145,0.0145,0.0145,0,0,-0.0345,-0.0322,-0.032,-0.0282,-0.0254,-0.0236,-0.0202,-0.018,-0.0159,-0.0109,-0.0072,-0.0032,0.0023,0.0065,0.0085,0.0093,0.0162,0.0133,0.0132,0.0131,0.0189,0.0193,0.0197,0.0146,0.0145,0.0145,0,0,-0.0376,-0.0353,-0.036,-0.0332,-0.0293,-0.0259,-0.0254,-0.0202,-0.0174,-0.0132,-0.0091,-0.0042,0.0018,0.0067,0.0097,0.012,0.0151,0.0127,0.0124,0.0179,0.0183,0.0187,0.0233,0.0241,0.0135,0.0135,0.0135,0,-0.04,-0.0397,-0.0355,-0.0349,-0.033,-0.0273,-0.027,-0.0228,-0.0167,-0.0138,-0.0128,-0.0022,0.0021,0.0088,0.0097,0.0118,0.0149,0.0118,0.0178,0.0182,0.0187,0.0233,0.0243,0.0134,0.0134,0.0134,0.0134,0,-0.043,-0.0426,-0.0426,-0.0398,-0.0369,-0.0359,-0.0295,-0.0262,-0.0222,-0.0174,-0.0107,-0.0038,0.0027,0.0051,0.0081,0.014,0.015,0.0162,0.0173,0.0189,0.0237,0.0248,0.0131,0.0132,0.0132,0.0133,0,0,-0.0493,-0.0458,-0.0459,-0.0456,-0.0396,-0.0378,-0.0334,-0.0276,-0.0244,-0.0175,-0.0126,-0.0043,0.0,0.0038,0.009,0.0145,0.0205,0.0163,0.0167,0.0199,0.032,0.0381,0.0399,0.0223,0.0224,0.0226,0.034,0,-0.0535,-0.0552,-0.0505,-0.0505,-0.0509,-0.0431,-0.0393,-0.0327,-0.026,-0.0195,-0.0103,-0.0043,-0.0005,0.0027,0.009,0.0177,0.0231,0.0173,0.0308,0.0312,0.0357,0.0413,0.0487,0.0599,0.035,0.0352,0.0353,0,-0.0584,-0.0588,-0.0607,-0.0566,-0.0557,-0.0536,-0.0464,-0.0421,-0.0305,-0.025,-0.0161,-0.0085,0.0021,0.0039,0.02,0.0159,0.0232,0.0297,0.0303,0.0379,0.0394,0.0546,0.0628,0.0798,0.037,0.0368,0.0367,0,-0.0671,-0.0655,-0.0678,-0.0665,-0.0608,-0.0589,-0.055,-0.0447,-0.0404,-0.0284,-0.0238,-0.0101,-0.0028,0.0083,0.0236,0.0215,0.0408,0.0397,0.0521,0.0526,0.0627,0.0638,0.0884,0.0499,0.0499,0.0498,0.0498,0,-0.0741,-0.0753,-0.0724,-0.0736,-0.0747,-0.067,-0.0648,-0.0581,-0.0478,-0.0418,-0.0282,-0.0196,-0.0014,0.0129,0.0239,0.0433,0.0418,0.0537,0.057,0.0618,0.0627,0.0808,0.0854,0.0502,0.0502,0.0501,0.05,0,-0.083,-0.0813,-0.0837,-0.0802,-0.0793,-0.0803,-0.0733,-0.0707,-0.0596,-0.0513,-0.0476,-0.0257,-0.005,0.0135,0.0348,0.045,0.0723,0.0675,0.072,0.0757,0.1016,0.1055,0.1294,0.1364,0.0829,0.0831,0.0833,0,-0.0877,-0.0904,-0.0908,-0.0934,-0.0922,-0.0917,-0.0907,-0.0794,-0.0746,-0.054,-0.0499,-0.0264,-0.0068,0.0283,0.0529,0.0766,0.0846,0.0936,0.0913,0.1069,0.1136,0.1147,0.1187,0.1033,0.1036,0.1039,0.1042,0,-0.0961,-0.0964,-0.0988,-0.1054,-0.1066,-0.1062,-0.1024,-0.0995,-0.0835,-0.0721,-0.0505,-0.0323,0.0075,0.0451,0.0771,0.0889,0.1073,0.1,0.1167,0.1331,0.1356,0.1425,0.0905,0.1067,0.1064,0.1062,0.1061,0.106,-0.1019,-0.1069,-0.1111,-0.1166,-0.1189,-0.1184,-0.1165,-0.1077,-0.0969,-0.0731,-0.053,-0.0196,0.0368,0.0871,0.1024,0.1395,0.1293,0.1481,0.1517,0.1516,0.1591,0.1121,0.1313,0.1312,0.1311,0.131,0.1309,0,-0.1091,-0.1144,-0.1215,-0.1267,-0.131,-0.1287,-0.1224,-0.1144,-0.1001,-0.0714,-0.0453,0.022,0.0756,0.1211,0.1772,0.1933,0.1916,0.1984,0.2034,0.2048,0.1663,0.1682,0.1958,0.1958,0.1958,0.1958,0.1958,0.1957,-0.1131,-0.1225,-0.1266,-0.1361,-0.139,-0.1394,-0.1351,-0.1163,-0.0931,-0.0445,-0.003,0.0303,0.0979,0.1966,0.2446,0.2432,0.2539,0.2508,0.2543,0.2307,0.2263,0.2221,0.2254,0.2646,0.2646,0.2927,0.293,0.2933]}],[{"header":{"parameterUnit":"m.s-1","parameterCategory":2,"la1":30.2991,"la2":30.254,"lo1":-89.0895,"lo2":-89.0444,"dx":0.0017,"dy":0.0017,"nx":28,"ny":28,"refTime":"2022-12-13T15:00:00:Z","depth":"2","parameterNumber":2,"parameterNumberName":"U-component_of_CURRENTS"},"data":[0,0,0,0,0,0,0,0,0,0,0,0,0,0,0,0,0,0,0,0,0,0,0,0,0,0,0,0,0,0,0,0,0,0,0,0,0,0,0,0,0,0,0,0,0,0,0,0,0,0,0,0,0,0,0,0,0,0,-0.2508,-0.2509,0,-0.25,-0.2499,-0.2499,-0.2467,-0.2467,-0.2467,-0.2466,-0.2397,-0.2396,-0.2394,0,0,0,0,0,0,0,0,0,0,0,0,0,-0.2452,-0.2454,-0.2508,-0.2509,-0.2509,-0.25,-0.2499,-0.2499,-0.2467,-0.2467,-0.2467,-0.2466,-0.2398,-0.2396,-0.2394,0,0,0,0,0,0,0,0,0,0,0,0,0,-0.2459,-0.2454,-0.2508,-0.2496,-0.2495,-0.25,-0.2499,-0.2499,-0.2467,-0.2467,-0.2467,-0.2466,-0.2398,-0.2396,-0.2394,-0.2388,0,0,-0.2386,-0.2385,0,0,0,0,0,0,0,0,-0.2459,-0.2461,-0.2497,-0.2497,-0.2496,-0.2488,-0.2454,-0.246,-0.2468,-0.2473,-0.2466,-0.2466,-0.2425,-0.2421,-0.2414,-0.2385,-0.2382,-0.2386,-0.2385,-0.2384,-0.2383,0,0,0,0,0,0,0,-0.2459,-0.2461,-0.25,-0.2498,-0.2497,-0.2475,-0.2476,-0.2455,-0.2447,-0.2472,-0.2471,-0.2478,-0.2424,-0.2417,-0.2412,-0.2381,-0.2386,-0.2384,-0.2383,-0.2382,-0.2353,-0.2354,0,0,0,0,0,0,-0.2472,-0.2461,-0.2501,-0.2501,-0.2481,-0.2477,-0.2477,-0.2487,-0.2448,-0.2444,-0.2478,-0.2477,-0.2421,-0.2415,-0.241,-0.2419,-0.2384,-0.2382,-0.238,-0.2353,-0.2354,-0.2354,0,0,0,0,0,0,-0.2471,-0.2476,-0.2501,-0.2484,-0.2486,-0.2479,-0.249,-0.2487,-0.2484,-0.2454,-0.2448,-0.2478,-0.242,-0.2413,-0.24,-0.2415,-0.2381,-0.2378,-0.2352,-0.2353,-0.2354,-0.2426,0,0,0,0,0,0,-0.2469,-0.2476,-0.2482,-0.2485,-0.2488,-0.2513,-0.2491,-0.2488,-0.249,-0.2488,-0.2452,-0.2445,-0.2419,-0.2404,-0.2398,-0.2411,-0.2377,-0.2351,-0.2352,-0.2354,-0.2422,-0.2429,-0.2434,0,0,0,0,0,-0.2468,-0.2482,-0.2482,-0.2487,-0.2499,-0.2514,-0.2513,-0.2503,-0.2491,-0.2495,-0.2472,-0.2446,-0.2407,-0.2402,-0.2395,-0.2409,-0.235,-0.2352,-0.2353,-0.242,-0.2428,-0.2434,0,0,0,0,0,0,-0.2456,-0.248,-0.2481,-0.25,-0.2511,-0.2511,-0.2514,-0.2509,-0.2494,-0.2487,-0.2454,-0.2446,-0.2438,-0.2414,-0.241,-0.2404,-0.2375,-0.2375,-0.2428,-0.2435,-0.2441,-0.2437,-0.2375,0,0,0,0,0,-0.2461,-0.2477,-0.2495,-0.2509,-0.2518,-0.2516,-0.2519,-0.2516,-0.2508,-0.2501,-0.2479,-0.2454,-0.2438,-0.243,-0.2408,-0.2406,-0.2386,-0.241,-0.2416,-0.2421,-0.2414,-0.2404,-0.2409,-0.2359,-0.2359,-0.2359,0,0,-0.2458,-0.2475,-0.2482,-0.2508,-0.2512,-0.2533,-0.2516,-0.2527,-0.2539,-0.2495,-0.2495,-0.2471,-0.2441,-0.2439,-0.2434,-0.2422,-0.2429,-0.2423,-0.2428,-0.2417,-0.2406,-0.2411,-0.2415,-0.236,-0.236,-0.236,0,0,-0.2468,-0.2481,-0.2499,-0.2518,-0.2538,-0.2542,-0.2551,-0.2556,-0.2552,-0.2556,-0.2526,-0.2513,-0.2492,-0.2474,-0.2462,-0.2487,-0.2458,-0.2485,-0.2516,-0.2508,-0.2512,-0.2515,-0.2514,-0.2517,-0.2492,-0.2492,-0.2492,0,-0.2462,-0.2495,-0.2506,-0.2534,-0.2553,-0.2552,-0.2579,-0.2579,-0.2577,-0.2578,-0.2565,-0.2534,-0.2508,-0.2505,-0.2512,-0.2501,-0.2494,-0.2494,-0.2516,-0.2519,-0.2521,-0.2519,-0.2521,-0.2496,-0.2495,-0.2495,-0.2495,0,-0.249,-0.252,-0.2534,-0.2572,-0.2591,-0.2614,-0.263,-0.2638,-0.2634,-0.2632,-0.2627,-0.2592,-0.2574,-0.257,-0.2547,-0.2552,-0.2542,-0.2524,-0.25,-0.253,-0.2527,-0.2527,-0.2501,-0.25,-0.2499,-0.2498,0,0,-0.2462,-0.254,-0.2543,-0.2573,-0.2616,-0.2633,-0.2662,-0.2686,-0.27,-0.2689,-0.2699,-0.2672,-0.2648,-0.2632,-0.2604,-0.2594,-0.2607,-0.2569,-0.2567,-0.2573,-0.2599,-0.2603,-0.2603,-0.2598,-0.2598,-0.2598,-0.2598,0,-0.2477,-0.2541,-0.2575,-0.2629,-0.2663,-0.2688,-0.2717,-0.2735,-0.2741,-0.2748,-0.2717,-0.2709,-0.2676,-0.2666,-0.2653,-0.2612,-0.2609,-0.2609,-0.2564,-0.2563,-0.2565,-0.2604,-0.2387,-0.2369,-0.2598,-0.2598,-0.2598,0,-0.2482,-0.2533,-0.2591,-0.2669,-0.2685,-0.271,-0.2755,-0.278,-0.2796,-0.2801,-0.2793,-0.2769,-0.2748,-0.2712,-0.2672,-0.2676,-0.2642,-0.2612,-0.2611,-0.2584,-0.2567,-0.2371,-0.2361,-0.2598,-0.2598,-0.2598,-0.2598,0,-0.2447,-0.2536,-0.2583,-0.261,-0.2695,-0.2717,-0.275,-0.2785,-0.2808,-0.2822,-0.2839,-0.2815,-0.28,-0.2756,-0.2704,-0.2689,-0.2661,-0.2632,-0.2605,-0.2606,-0.2394,-0.2376,-0.2604,-0.2604,-0.2604,-0.2604,-0.2604,0,-0.2447,-0.2481,-0.2568,-0.2595,-0.2641,-0.2702,-0.274,-0.2772,-0.2817,-0.2844,-0.285,-0.286,-0.2809,-0.2791,-0.273,-0.2682,-0.2687,-0.2615,-0.2607,-0.2417,-0.2402,-0.257,-0.2566,-0.2604,-0.2604,-0.2604,-0.2604,0,-0.2392,-0.2457,-0.2507,-0.2599,-0.2623,-0.2644,-0.2728,-0.2761,-0.2816,-0.285,-0.2858,-0.2892,-0.287,-0.283,-0.2766,-0.2723,-0.2668,-0.2648,-0.2441,-0.241,-0.2609,-0.2609,-0.2613,-0.2614,-0.2614,-0.2614,-0.2614,0,-0.2371,-0.2391,-0.2478,-0.2503,-0.254,-0.2593,-0.2634,-0.2726,-0.2765,-0.2863,-0.2871,-0.2894,-0.2886,-0.2828,-0.2722,-0.2639,-0.2675,-0.2429,-0.236,-0.2619,-0.2611,-0.261,-0.261,-0.2104,-0.21,-0.2096,-0.2094,0,-0.2306,-0.2328,-0.2369,-0.2426,-0.247,-0.2527,-0.2592,-0.2636,-0.2746,-0.2792,-0.2856,-0.2869,-0.2828,-0.2652,-0.2571,-0.2479,-0.2427,-0.2364,-0.2661,-0.2162,-0.2146,-0.2136,-0.215,-0.2064,-0.2067,-0.2069,-0.207,-0.2072,-0.2224,-0.223,-0.2275,-0.2319,-0.2378,-0.2427,-0.2428,-0.2503,-0.2552,-0.2547,-0.2701,-0.2609,-0.2605,-0.2344,-0.2257,-0.2153,-0.2294,-0.217,-0.2176,-0.2186,-0.2155,-0.2142,-0.2053,-0.2056,-0.2058,-0.206,-0.2062,0,-0.2101,-0.2131,-0.2168,-0.2206,-0.2204,-0.2294,-0.2366,-0.2285,-0.2268,-0.2308,-0.2304,-0.2062,-0.2013,-0.199,-0.1803,-0.1818,-0.1739,-0.1737,-0.1619,-0.165,-0.1678,-0.1616,-0.1374,-0.1372,-0.137,-0.1368,0,0,-0.2029,-0.2009,-0.2035,-0.1992,-0.2033,-0.1947,-0.1955,-0.1849,-0.1803,-0.1663,-0.161,-0.1783,-0.1898,-0.1601,-0.1577,-0.1446,-0.1511,-0.1369,-0.1916,-0.1802,-0.1826,-0.1923,-0.1865,0,0,0,0,0]},{"header":{"parameterUnit":"m.s-1","parameterCategory":2,"la1":30.2991,"la2":30.254,"lo1":-89.0895,"lo2":-89.0444,"dx":0.0017,"dy":0.0017,"nx":28,"ny":28,"refTime":"2022-12-13T15:00:00:Z","depth":"2","parameterNumber":3,"parameterNumberName":"V-component_of_CURRENTS"},"data":[0,0,0,0,0,0,0,0,0,0,0,0,0,0,0,0,0,0,0,0,0,0,0,0,0,0,0,0,0,0,0,0,0,0,0,0,0,0,0,0,0,0,0,0,0,0,0,0,0,0,0,0,0,0,0,0,0,0,-0.026,-0.0259,0,-0.0175,-0.0174,-0.0173,-0.0129,-0.0129,-0.0129,-0.0129,-0.0033,-0.003,-0.0028,0,0,0,0,0,0,0,0,0,0,0,0,0,-0.0332,-0.0331,-0.026,-0.0259,-0.0258,-0.0175,-0.0174,-0.0172,-0.0129,-0.0129,-0.0129,-0.0129,-0.0034,-0.0031,-0.0028,0,0,0,0,0,0,0,0,0,0,0,0,0,-0.0279,-0.0331,-0.026,-0.0226,-0.0222,-0.0175,-0.0174,-0.0172,-0.0129,-0.0129,-0.0129,-0.0129,-0.0035,-0.0031,-0.0027,-0.0005,0,0,-0.0016,-0.0014,0,0,0,0,0,0,0,0,-0.0283,-0.0277,-0.0232,-0.0228,-0.0224,-0.0162,-0.0163,-0.0116,-0.0129,-0.0165,-0.0129,-0.0129,-0.0075,-0.0068,-0.0052,-0.0001,0.0004,-0.0015,-0.0013,-0.0011,-0.001,0,0,0,0,0,0,0,-0.0286,-0.028,-0.0226,-0.0231,-0.0226,-0.0197,-0.019,-0.0154,-0.0121,-0.0162,-0.0158,-0.0149,-0.0073,-0.0056,-0.005,0.0005,-0.0015,-0.0012,-0.001,-0.0008,0.0105,0.0105,0,0,0,0,0,0,-0.0299,-0.0284,-0.0229,-0.0224,-0.0253,-0.0196,-0.0188,-0.0182,-0.0122,-0.0112,-0.0149,-0.0147,-0.0063,-0.0054,-0.0046,-0.0004,-0.0011,-0.0008,-0.0006,0.0104,0.0105,0.0106,0,0,0,0,0,0,-0.0301,-0.0295,-0.0233,-0.0251,-0.0241,-0.0195,-0.0189,-0.0181,-0.0163,-0.0112,-0.0103,-0.014,-0.0062,-0.0052,-0.0008,-0.0001,-0.0006,-0.0003,0.0103,0.0104,0.0105,0.0072,0,0,0,0,0,0,-0.0304,-0.0297,-0.03,-0.0253,-0.0241,-0.0209,-0.0189,-0.0179,-0.0157,-0.0154,-0.0101,-0.0092,-0.0061,-0.0014,-0.0004,0.0004,0.0,0.0102,0.0104,0.0105,0.0072,0.0072,0.0072,0,0,0,0,0,-0.0307,-0.0313,-0.03,-0.0294,-0.0246,-0.0209,-0.0201,-0.0167,-0.0157,-0.0151,-0.011,-0.0094,0.0001,-0.001,0.0001,0.0011,0.0101,0.0103,0.0105,0.0072,0.0072,0.0072,0,0,0,0,0,0,-0.0346,-0.0307,-0.0293,-0.0287,-0.0253,-0.0202,-0.0195,-0.017,-0.0132,-0.0131,-0.0083,-0.0071,-0.0034,-0.0003,-0.0017,0.0049,0.0054,0.0058,0.0025,0.0025,0.0025,0.0013,0.0004,0,0,0,0,0,-0.0357,-0.0352,-0.0306,-0.0302,-0.0288,-0.0242,-0.0224,-0.0201,-0.016,-0.0144,-0.0103,-0.0058,-0.0018,0.0009,0.0044,0.0084,0.0116,0.0099,0.0098,0.0098,0.0097,0.0153,0.0157,0.0111,0.0111,0.0111,0,0,-0.0373,-0.035,-0.0348,-0.031,-0.0283,-0.0265,-0.0232,-0.0209,-0.0188,-0.0139,-0.0102,-0.0063,-0.0009,0.0032,0.0052,0.006,0.0128,0.01,0.0099,0.0098,0.0155,0.0159,0.0163,0.0112,0.0112,0.0112,0,0,-0.0403,-0.0381,-0.0387,-0.0359,-0.0321,-0.0287,-0.0283,-0.0231,-0.0204,-0.0162,-0.0122,-0.0073,-0.0014,0.0034,0.0064,0.0086,0.0118,0.0093,0.0091,0.0146,0.015,0.0154,0.0199,0.0207,0.0101,0.0101,0.0101,0,-0.0426,-0.0424,-0.0382,-0.0376,-0.0358,-0.0301,-0.0298,-0.0257,-0.0196,-0.0168,-0.0158,-0.0053,-0.0011,0.0055,0.0064,0.0085,0.0115,0.0085,0.0144,0.0149,0.0153,0.0199,0.0208,0.01,0.01,0.01,0.01,0,-0.0456,-0.0452,-0.0452,-0.0425,-0.0396,-0.0386,-0.0323,-0.029,-0.0251,-0.0203,-0.0137,-0.0069,-0.0005,0.0019,0.0049,0.0107,0.0117,0.0128,0.014,0.0156,0.0203,0.0213,0.0098,0.0099,0.0099,0.0099,0,0,-0.0518,-0.0483,-0.0485,-0.0481,-0.0423,-0.0405,-0.0362,-0.0304,-0.0273,-0.0205,-0.0156,-0.0074,-0.0031,0.0006,0.0057,0.0111,0.0172,0.013,0.0134,0.0166,0.0286,0.0343,0.036,0.0189,0.0191,0.0192,0.0305,0,-0.0558,-0.0575,-0.053,-0.053,-0.0533,-0.0456,-0.042,-0.0355,-0.0289,-0.0224,-0.0134,-0.0074,-0.0036,-0.0004,0.0058,0.0144,0.0198,0.014,0.0274,0.0278,0.032,0.0374,0.0289,0.0386,0.0315,0.0317,0.0318,0,-0.0607,-0.0611,-0.063,-0.059,-0.058,-0.056,-0.0489,-0.0447,-0.0332,-0.0279,-0.0191,-0.0115,-0.0011,0.0007,0.0167,0.0126,0.0199,0.0263,0.0269,0.0341,0.0356,0.0362,0.0408,0.0336,0.0335,0.0333,0.0332,0,-0.0692,-0.0676,-0.0699,-0.0687,-0.063,-0.0612,-0.0573,-0.0472,-0.043,-0.0312,-0.0267,-0.0131,-0.0058,0.0052,0.0202,0.0182,0.0373,0.0362,0.0482,0.0487,0.0452,0.0451,0.0463,0.0463,0.0463,0.0462,0.0462,0,-0.076,-0.0773,-0.0744,-0.0756,-0.0767,-0.0692,-0.067,-0.0604,-0.0502,-0.0445,-0.0309,-0.0225,-0.0045,0.0096,0.0206,0.0395,0.0382,0.0498,0.053,0.044,0.0436,0.0418,0.0411,0.0467,0.0466,0.0465,0.0464,0,-0.0848,-0.0831,-0.0855,-0.0821,-0.0812,-0.0822,-0.0753,-0.0729,-0.0619,-0.0539,-0.0502,-0.0286,-0.0083,0.0101,0.0311,0.0412,0.0572,0.0633,0.0519,0.0537,0.0641,0.0631,0.0776,0.0779,0.0782,0.0784,0.0786,0,-0.0894,-0.092,-0.0925,-0.0951,-0.0939,-0.0934,-0.0925,-0.0814,-0.0768,-0.0567,-0.0528,-0.0296,-0.0109,0.0238,0.0446,0.067,0.0663,0.0722,0.0678,0.0662,0.0678,0.0664,0.0651,0.061,0.0611,0.0611,0.0611,0,-0.0976,-0.0979,-0.1003,-0.1068,-0.1081,-0.1078,-0.1042,-0.1014,-0.0859,-0.075,-0.0541,-0.0368,-0.0008,0.0262,0.0565,0.0668,0.0683,0.0738,0.0763,0.0554,0.0518,0.053,0.052,0.0613,0.0613,0.0613,0.0613,0.0613,-0.1033,-0.1083,-0.1125,-0.1179,-0.1203,-0.12,-0.1183,-0.1106,-0.1005,-0.0807,-0.0603,-0.0341,-0.0038,0.038,0.0595,0.0762,0.0769,0.0778,0.0771,0.0766,0.0736,0.0709,0.0833,0.0834,0.0835,0.0836,0.0836,0,-0.1103,-0.1157,-0.1228,-0.128,-0.1323,-0.1302,-0.1243,-0.1189,-0.1066,-0.0857,-0.0634,-0.0321,0.0012,0.0305,0.058,0.0784,0.0722,0.0793,0.0668,0.0665,0.0662,0.0622,0.0692,0.0692,0.0693,0.0693,0,0,-0.1141,-0.1234,-0.1274,-0.1371,-0.1403,-0.1416,-0.1376,-0.1258,-0.1097,-0.0883,-0.0686,-0.0391,0.0002,0.0172,0.0423,0.0566,0.0551,0.0556,0.0645,0.0462,0.0457,0.0624,0.0557,0,0,0,0,0]}],[{"header":{"parameterUnit":"m.s-1","parameterCategory":2,"la1":30.2991,"la2":30.254,"lo1":-89.0895,"lo2":-89.0444,"dx":0.0017,"dy":0.0017,"nx":28,"ny":28,"refTime":"2022-12-13T15:00:00:Z","depth":"4","parameterNumber":2,"parameterNumberName":"U-component_of_CURRENTS"},"data":[0,0,0,0,0,0,0,0,0,0,0,0,0,0,0,0,0,0,0,0,0,0,0,0,0,0,0,0,0,0,0,0,0,0,0,0,0,0,0,0,0,0,0,0,0,0,0,0,0,0,0,0,0,0,0,0,0,0,-0.1554,-0.1554,0,-0.1595,-0.1595,-0.1595,-0.1624,-0.1624,-0.1625,-0.1625,-0.1641,-0.1641,-0.1641,0,0,0,0,0,0,0,0,0,0,0,0,0,-0.1474,-0.1475,-0.1554,-0.1555,-0.1555,-0.1595,-0.1595,-0.1595,-0.1624,-0.1624,-0.1625,-0.1625,-0.1641,-0.1641,-0.1641,0,0,0,0,0,0,0,0,0,0,0,0,0,-0.1508,-0.1475,-0.1554,-0.1577,-0.1579,-0.1595,-0.1595,-0.1595,-0.1623,-0.1624,-0.1625,-0.1626,-0.1641,-0.1641,-0.1641,-0.1625,0,0,-0.1641,-0.1641,0,0,0,0,0,0,0,0,-0.1506,-0.151,-0.1572,-0.1575,-0.1578,-0.1608,-0.1573,-0.1605,-0.1623,-0.1603,-0.1625,-0.1626,-0.1629,-0.163,-0.1632,-0.1626,-0.1627,-0.1641,-0.1641,-0.1641,-0.1641,0,0,0,0,0,0,0,-0.1503,-0.1509,-0.1567,-0.1573,-0.1577,-0.1576,-0.1582,-0.1579,-0.1609,-0.1605,-0.1608,-0.1617,-0.163,-0.1632,-0.1633,-0.1627,-0.1641,-0.1641,-0.1641,-0.1641,-0.1685,-0.1686,0,0,0,0,0,0,-0.1506,-0.1507,-0.1565,-0.1568,-0.1547,-0.1577,-0.1583,-0.1595,-0.1609,-0.1613,-0.1617,-0.1619,-0.1632,-0.1633,-0.1633,-0.1698,-0.1641,-0.1641,-0.1641,-0.1684,-0.1685,-0.1687,0,0,0,0,0,0,-0.1504,-0.1511,-0.1564,-0.1541,-0.1548,-0.1578,-0.1591,-0.1595,-0.1628,-0.1619,-0.1622,-0.1649,-0.1632,-0.1633,-0.1661,-0.1695,-0.1641,-0.1641,-0.1682,-0.1684,-0.1686,-0.1773,0,0,0,0,0,0,-0.1501,-0.151,-0.153,-0.1541,-0.1549,-0.1596,-0.159,-0.1596,-0.1632,-0.1636,-0.1646,-0.1647,-0.1633,-0.1661,-0.1661,-0.1694,-0.1641,-0.1681,-0.1683,-0.1685,-0.1769,-0.1778,-0.1786,0,0,0,0,0,-0.1498,-0.152,-0.1531,-0.1539,-0.1573,-0.1597,-0.1602,-0.1623,-0.1633,-0.1654,-0.1664,-0.1648,-0.1675,-0.1663,-0.1662,-0.1696,-0.168,-0.1683,-0.1685,-0.1765,-0.1776,-0.1785,0,0,0,0,0,0,-0.1497,-0.1526,-0.1538,-0.1569,-0.1593,-0.1604,-0.1629,-0.1641,-0.1665,-0.1675,-0.1664,-0.1666,-0.1699,-0.1685,-0.1671,-0.1714,-0.1675,-0.1678,-0.1736,-0.1746,-0.1754,-0.1745,-0.1641,0,0,0,0,0,-0.1506,-0.1533,-0.1556,-0.1584,-0.16,-0.162,-0.1638,-0.1653,-0.167,-0.1683,-0.1692,-0.1698,-0.1703,-0.1717,-0.1714,-0.1742,-0.1718,-0.1762,-0.1771,-0.1778,-0.177,-0.1768,-0.1775,-0.1696,-0.1696,-0.1696,0,0,-0.1514,-0.1534,-0.1551,-0.1587,-0.1608,-0.1639,-0.1633,-0.1671,-0.1701,-0.1679,-0.1729,-0.1726,-0.1715,-0.1745,-0.1759,-0.1745,-0.1792,-0.1781,-0.1788,-0.1775,-0.1771,-0.1779,-0.1786,-0.1698,-0.1697,-0.1697,0,0,-0.1535,-0.1564,-0.1591,-0.1617,-0.1658,-0.1671,-0.169,-0.172,-0.1743,-0.1784,-0.1773,-0.1792,-0.1812,-0.1807,-0.1806,-0.1857,-0.1831,-0.1867,-0.1911,-0.191,-0.1917,-0.1922,-0.1918,-0.1922,-0.1878,-0.1878,-0.1879,0,-0.1545,-0.1583,-0.1603,-0.1637,-0.1667,-0.1691,-0.1728,-0.1751,-0.1789,-0.1809,-0.1814,-0.1842,-0.1836,-0.1859,-0.188,-0.1876,-0.1871,-0.1877,-0.1921,-0.1926,-0.193,-0.1924,-0.1928,-0.1883,-0.1882,-0.1882,-0.1882,0,-0.1576,-0.1621,-0.1642,-0.1693,-0.1726,-0.1765,-0.1799,-0.1838,-0.187,-0.1887,-0.1929,-0.1922,-0.1937,-0.1945,-0.193,-0.196,-0.1947,-0.1928,-0.1897,-0.1943,-0.1934,-0.1936,-0.1889,-0.1888,-0.1886,-0.1885,0,0,-0.1554,-0.1647,-0.1657,-0.1698,-0.1763,-0.179,-0.185,-0.19,-0.1939,-0.1974,-0.2014,-0.2029,-0.2027,-0.2023,-0.2011,-0.2014,-0.2043,-0.1993,-0.1991,-0.199,-0.2049,-0.1944,-0.1935,-0.2042,-0.2042,-0.2042,-0.2038,0,-0.1575,-0.1649,-0.1691,-0.1769,-0.181,-0.1862,-0.1913,-0.1962,-0.2002,-0.2044,-0.2047,-0.2076,-0.2057,-0.2072,-0.2074,-0.2045,-0.205,-0.2046,-0.2002,-0.2,-0.1901,-0.1934,-0.2044,-0.2039,-0.2039,-0.204,-0.204,0,-0.1577,-0.1635,-0.1713,-0.1815,-0.1838,-0.1889,-0.1976,-0.2023,-0.2081,-0.2112,-0.2142,-0.2143,-0.2156,-0.2129,-0.2115,-0.2119,-0.2092,-0.2066,-0.2065,-0.1931,-0.1897,-0.1978,-0.2042,-0.2042,-0.2042,-0.2042,-0.2042,0,-0.1533,-0.1644,-0.1711,-0.1746,-0.186,-0.1911,-0.1971,-0.2044,-0.2087,-0.215,-0.2183,-0.22,-0.2212,-0.2185,-0.2147,-0.214,-0.2119,-0.2098,-0.1976,-0.1969,-0.2027,-0.2021,-0.2081,-0.2081,-0.2081,-0.2081,-0.2081,0,-0.1516,-0.1573,-0.1703,-0.1739,-0.1819,-0.1904,-0.1983,-0.2042,-0.2121,-0.2158,-0.2211,-0.2224,-0.2228,-0.2218,-0.217,-0.2079,-0.2142,-0.1978,-0.1957,-0.2066,-0.2065,-0.2029,-0.2023,-0.208,-0.208,-0.208,-0.208,0,-0.1443,-0.1534,-0.1615,-0.1753,-0.1798,-0.185,-0.1982,-0.2029,-0.2122,-0.2169,-0.2192,-0.2253,-0.2232,-0.2221,-0.2176,-0.2099,-0.2026,-0.1979,-0.2108,-0.2095,-0.1871,-0.187,-0.1832,-0.1829,-0.1825,-0.1823,-0.182,0,-0.141,-0.1446,-0.1597,-0.1645,-0.1712,-0.181,-0.1871,-0.2,-0.204,-0.2159,-0.2158,-0.2199,-0.2212,-0.2066,-0.2071,-0.1983,-0.1951,-0.1919,-0.1876,-0.186,-0.1845,-0.1849,-0.1852,-0.1815,-0.1814,-0.1814,-0.1813,0,-0.1333,-0.1395,-0.1459,-0.1555,-0.1638,-0.1714,-0.1809,-0.1833,-0.1963,-0.2079,-0.2066,-0.2046,-0.2025,-0.1974,-0.1932,-0.1865,-0.194,-0.1884,-0.1889,-0.1849,-0.1839,-0.1828,-0.1835,-0.1801,-0.1803,-0.1804,-0.1805,0,-0.1261,-0.1281,-0.1365,-0.1433,-0.1532,-0.157,-0.1651,-0.1703,-0.1763,-0.1907,-0.1897,-0.1936,-0.2007,-0.1913,-0.1867,-0.1803,-0.1758,-0.1694,-0.1709,-0.1721,-0.1683,-0.1655,-0.1538,0,0,0,0,0,-0.1176,-0.1178,-0.1235,-0.1296,-0.139,-0.1433,-0.1579,-0.1664,-0.1805,-0.1753,-0.182,-0.179,-0.1739,-0.1761,-0.166,-0.1792,-0.1754,-0.167,-0.1687,-0.1739,-0.1752,-0.1715,0,0,0,0,0,0,-0.1114,-0.1155,-0.1178,-0.1157,-0.1166,-0.1242,-0.1327,-0.1436,-0.142,-0.1573,-0.1546,-0.1665,-0.1627,-0.1736,-0.1606,-0.1612,-0.1588,-0.1708,-0.1704,-0.1732,-0.1743,-0.1754,-0.1721,0,0,0,0,0]},{"header":{"parameterUnit":"m.s-1","parameterCategory":2,"la1":30.2991,"la2":30.254,"lo1":-89.0895,"lo2":-89.0444,"dx":0.0017,"dy":0.0017,"nx":28,"ny":28,"refTime":"2022-12-13T15:00:00:Z","depth":"4","parameterNumber":3,"parameterNumberName":"V-component_of_CURRENTS"},"data":[0,0,0,0,0,0,0,0,0,0,0,0,0,0,0,0,0,0,0,0,0,0,0,0,0,0,0,0,0,0,0,0,0,0,0,0,0,0,0,0,0,0,0,0,0,0,0,0,0,0,0,0,0,0,0,0,0,0,-0.0288,-0.0288,0,-0.0233,-0.0233,-0.0232,-0.0205,-0.0205,-0.0205,-0.0205,-0.0137,-0.0135,-0.0133,0,0,0,0,0,0,0,0,0,0,0,0,0,-0.0328,-0.0327,-0.0288,-0.0288,-0.0287,-0.0233,-0.0233,-0.0232,-0.0205,-0.0205,-0.0205,-0.0205,-0.0137,-0.0135,-0.0133,0,0,0,0,0,0,0,0,0,0,0,0,0,-0.0295,-0.0327,-0.0289,-0.0267,-0.0265,-0.0234,-0.0233,-0.0232,-0.0205,-0.0205,-0.0205,-0.0205,-0.0138,-0.0135,-0.0133,-0.0115,0,0,-0.0124,-0.0123,0,0,0,0,0,0,0,0,-0.0297,-0.0294,-0.0271,-0.0269,-0.0266,-0.0226,-0.0221,-0.0192,-0.0205,-0.0227,-0.0205,-0.0205,-0.0165,-0.016,-0.015,-0.0112,-0.0109,-0.0124,-0.0122,-0.0121,-0.012,0,0,0,0,0,0,0,-0.03,-0.0296,-0.0266,-0.027,-0.0267,-0.0246,-0.0242,-0.0216,-0.0197,-0.0225,-0.0223,-0.0217,-0.0164,-0.0153,-0.0148,-0.0108,-0.0124,-0.0122,-0.012,-0.0119,-0.0034,-0.0033,0,0,0,0,0,0,-0.0309,-0.0298,-0.0268,-0.0265,-0.0282,-0.0245,-0.024,-0.0239,-0.0197,-0.0191,-0.0217,-0.0216,-0.0157,-0.0151,-0.0146,-0.0115,-0.0121,-0.0119,-0.0117,-0.0034,-0.0034,-0.0033,0,0,0,0,0,0,-0.031,-0.0307,-0.027,-0.028,-0.0274,-0.0245,-0.0243,-0.0237,-0.0228,-0.0191,-0.0185,-0.0213,-0.0157,-0.0149,-0.0119,-0.0112,-0.0117,-0.0115,-0.0035,-0.0034,-0.0033,-0.0058,0,0,0,0,0,0,-0.0312,-0.0308,-0.0313,-0.0281,-0.0274,-0.0257,-0.0243,-0.0236,-0.0224,-0.0222,-0.0185,-0.0179,-0.0156,-0.0123,-0.0117,-0.0109,-0.0113,-0.0036,-0.0035,-0.0034,-0.0058,-0.0058,-0.0059,0,0,0,0,0,-0.0313,-0.032,-0.0314,-0.031,-0.0281,-0.0257,-0.0252,-0.0231,-0.0224,-0.0222,-0.0192,-0.018,-0.0111,-0.0121,-0.0113,-0.0104,-0.0036,-0.0035,-0.0034,-0.0058,-0.0058,-0.0059,0,0,0,0,0,0,-0.0341,-0.0317,-0.0309,-0.0309,-0.0288,-0.0253,-0.0251,-0.0234,-0.0208,-0.0208,-0.0173,-0.0164,-0.0138,-0.0114,-0.0126,-0.0075,-0.0071,-0.0068,-0.0093,-0.0093,-0.0093,-0.01,-0.011,0,0,0,0,0,-0.035,-0.035,-0.032,-0.0322,-0.0313,-0.0282,-0.0272,-0.0256,-0.0228,-0.0218,-0.0188,-0.0155,-0.0125,-0.0105,-0.008,-0.0049,-0.0023,-0.0037,-0.0037,-0.0037,-0.0037,0.0012,0.0016,-0.0028,-0.0028,-0.0028,0,0,-0.0363,-0.0349,-0.035,-0.0328,-0.0311,-0.03,-0.0276,-0.0264,-0.025,-0.0214,-0.0189,-0.016,-0.0119,-0.0088,-0.0073,-0.0066,-0.0011,-0.0036,-0.0036,-0.0036,0.0014,0.0018,0.0022,-0.0027,-0.0028,-0.0028,0,0,-0.0386,-0.0375,-0.0382,-0.0364,-0.0341,-0.0319,-0.0317,-0.0282,-0.0263,-0.0235,-0.0204,-0.0166,-0.0124,-0.0085,-0.0062,-0.0044,-0.002,-0.0039,-0.0038,0.001,0.0014,0.0017,0.0051,0.0058,-0.0032,-0.0032,-0.0032,0,-0.0404,-0.0406,-0.038,-0.0377,-0.0366,-0.0329,-0.0329,-0.0301,-0.026,-0.0239,-0.0233,-0.0153,-0.012,-0.0067,-0.006,-0.0044,-0.0021,-0.0044,0.0009,0.0013,0.0017,0.0051,0.0059,-0.0033,-0.0033,-0.0033,-0.0032,0,-0.0426,-0.0428,-0.043,-0.0414,-0.0396,-0.0392,-0.035,-0.0328,-0.0302,-0.0267,-0.0217,-0.0164,-0.0113,-0.0095,-0.0072,-0.0021,-0.0016,-0.0005,0.0005,0.002,0.0054,0.0063,-0.0034,-0.0034,-0.0034,-0.0033,0,0,-0.0467,-0.0451,-0.0453,-0.0454,-0.0418,-0.0407,-0.0379,-0.0339,-0.0319,-0.0268,-0.0231,-0.0166,-0.0132,-0.0102,-0.0061,-0.0014,0.0038,0.0002,0.0005,0.0027,0.0133,0.0117,0.0125,0.0055,0.0057,0.0058,0.0142,0,-0.0495,-0.0512,-0.0484,-0.0491,-0.0495,-0.0446,-0.0423,-0.0378,-0.0332,-0.0284,-0.0212,-0.0166,-0.0135,-0.011,-0.0055,0.0015,0.006,0.0013,0.0121,0.0124,0.0103,0.0135,0.0063,0.0149,0.0151,0.0152,0.0153,0,-0.0524,-0.0533,-0.0554,-0.0535,-0.053,-0.0523,-0.0478,-0.045,-0.0367,-0.0327,-0.0257,-0.0198,-0.0111,-0.0095,0.0037,0.0004,0.0064,0.0116,0.0121,0.0121,0.0125,0.0134,0.017,0.0168,0.0167,0.0166,0.0165,0,-0.0576,-0.0577,-0.06,-0.0595,-0.0567,-0.0561,-0.054,-0.0471,-0.0445,-0.0353,-0.0321,-0.0208,-0.0151,-0.0056,0.0062,0.005,0.02,0.0199,0.0241,0.024,0.0238,0.0233,0.0285,0.0285,0.0285,0.0284,0.0284,0,-0.0613,-0.0631,-0.0633,-0.0645,-0.0667,-0.0619,-0.0615,-0.057,-0.0502,-0.0468,-0.0353,-0.0295,-0.0138,-0.0028,0.0064,0.0185,0.0207,0.0247,0.0266,0.0225,0.0218,0.0244,0.0238,0.0287,0.0287,0.0286,0.0286,0,-0.0658,-0.0662,-0.0692,-0.069,-0.0695,-0.0711,-0.0685,-0.0674,-0.0598,-0.0548,-0.052,-0.0351,-0.0201,-0.0049,0.0122,0.0184,0.03,0.0334,0.0279,0.0292,0.0303,0.0295,0.0383,0.0384,0.0384,0.0384,0.0384,0,-0.0679,-0.0703,-0.0743,-0.0776,-0.0781,-0.0797,-0.0806,-0.074,-0.0714,-0.0583,-0.0556,-0.0389,-0.0272,-0.0032,0.0123,0.0307,0.0323,0.0374,0.0339,0.0306,0.0316,0.0308,0.0299,0.0384,0.0385,0.0385,0.0385,0,-0.0716,-0.074,-0.0769,-0.0848,-0.0882,-0.0904,-0.09,-0.0883,-0.079,-0.0729,-0.0577,-0.0421,-0.0242,-0.004,0.0116,0.0241,0.0338,0.0377,0.0376,0.0343,0.0309,0.0316,0.0308,0.0385,0.0385,0.0385,0.0385,0,-0.0745,-0.0786,-0.0842,-0.0901,-0.0959,-0.0983,-0.0972,-0.0914,-0.0867,-0.0706,-0.0659,-0.044,-0.0297,-0.0073,0.0067,0.0199,0.0216,0.0231,0.0239,0.024,0.0171,0.0105,0.0142,0,0,0,0,0,-0.0765,-0.0817,-0.0887,-0.095,-0.101,-0.1036,-0.102,-0.0985,-0.0895,-0.0805,-0.0724,-0.0553,-0.0293,-0.0157,-0.003,0.0044,0.0219,0.0192,0.0234,0.039,0.0389,0.0332,0,0,0,0,0,0,-0.0782,-0.0855,-0.0893,-0.0978,-0.1028,-0.1079,-0.1071,-0.101,-0.0931,-0.0821,-0.0673,-0.0561,-0.0302,-0.038,-0.0043,0.0004,0.0039,0.0331,0.0332,0.039,0.0389,0.0389,0.033,0,0,0,0,0]}]]